[[{"header":{"parameterUnit":"m.s-1","parameterCategory":1,"la1":30.2991,"la2":30.254,"lo1":-89.0895,"lo2":-89.0444,"dy":0.0017,"dx":0.0017,"nx":28,"ny":28,"refTime":"2025-04-14T03:00:00:Z","depth":0,"parameterNumber":2,"parameterNumberName":"U-component_of_WINDS"},"data":[0,0,0,0,0,0,0,0,0,0,0,0,0,0,0,0,0,0,0,0,0,0,0,0,0,0,0,0,0,0,0,0,0,0,0,0,0,0,0,0,0,0,0,0,0,0,0,0,0,0,0,0,0,0,0,0,0,0,4.1506,4.1507,0,4.1628,4.1629,4.1631,4.1603,4.1601,4.1599,4.1597,4.1724,4.1729,4.1735,0,0,0,0,0,0,0,0,0,0,0,0,0,4.1251,4.1256,4.1506,4.1507,4.1509,4.1628,4.163,4.1631,4.1604,4.1601,4.1598,4.1596,4.1722,4.1729,4.1735,0,0,0,0,0,0,0,0,0,0,0,0,0,4.1366,4.1257,4.1506,4.151,4.1511,4.1628,4.163,4.1632,4.1604,4.1601,4.1597,4.1594,4.172,4.1728,4.1736,4.1857,0,0,4.1762,4.1765,0,0,0,0,0,0,0,0,4.136,4.1376,4.1507,4.1509,4.1511,4.1597,4.1586,4.1707,4.1605,4.1569,4.1597,4.1593,4.1685,4.1696,4.1726,4.1863,4.1868,4.1762,4.1767,4.1771,4.1773,0,0,0,0,0,0,0,4.1352,4.137,4.1554,4.1509,4.1512,4.1506,4.1518,4.1609,4.1645,4.1572,4.157,4.1585,4.1685,4.1718,4.1729,4.187,4.1762,4.1769,4.1775,4.1778,4.2112,4.2116,0,0,0,0,0,0,4.1342,4.1364,4.155,4.1558,4.1425,4.1513,4.1527,4.1573,4.1644,4.1651,4.1588,4.1583,4.1706,4.1719,4.1733,4.1879,4.1771,4.1779,4.1783,4.2108,4.2113,4.2117,0,0,0,0,0,0,4.1337,4.1359,4.1545,4.1461,4.1484,4.1521,4.1573,4.1577,4.161,4.1656,4.1662,4.1615,4.1704,4.1722,4.1826,4.1883,4.1782,4.179,4.2104,4.211,4.2115,4.2172,0,0,0,0,0,0,4.1329,4.1357,4.1403,4.1462,4.1488,4.1636,4.1576,4.1582,4.1625,4.162,4.1683,4.169,4.1702,4.1814,4.1835,4.1893,4.1796,4.2099,4.2107,4.2113,4.2165,4.2179,4.2191,0,0,0,0,0,4.132,4.1414,4.1405,4.1428,4.1546,4.1639,4.1654,4.1666,4.1629,4.1676,4.1705,4.1688,4.1874,4.1825,4.1848,4.191,4.2095,4.2104,4.2113,4.216,4.2176,4.2191,0,0,0,0,0,0,4.1362,4.1422,4.1413,4.1528,4.1579,4.1634,4.1693,4.1683,4.1746,4.1739,4.1751,4.1765,4.1872,4.1901,4.1846,4.203,4.1979,4.1993,4.2007,4.2024,4.2036,4.2027,4.1803,0,0,0,0,0,4.1384,4.1454,4.1503,4.1601,4.1626,4.1656,4.1697,4.1701,4.1754,4.1775,4.1812,4.1865,4.1935,4.1981,4.2048,4.217,4.2183,4.2223,4.2236,4.2247,4.2258,4.2325,4.2343,4.2146,4.2146,4.2146,0,0,4.1432,4.1473,4.1517,4.161,4.1649,4.1722,4.1674,4.1753,4.1807,4.1787,4.1888,4.1917,4.1977,4.209,4.2142,4.2118,4.2316,4.2258,4.2266,4.2272,4.2336,4.2354,4.2371,4.2152,4.2151,4.215,0,0,4.1555,4.1593,4.1679,4.1719,4.1779,4.1798,4.1819,4.1876,4.1894,4.1996,4.1983,4.2048,4.2168,4.2211,4.2249,4.2389,4.2376,4.2411,4.2478,4.2543,4.2558,4.2572,4.2622,4.264,4.2422,4.2423,4.2423,0,4.1606,4.1714,4.1724,4.1804,4.1846,4.1831,4.1918,4.1957,4.2037,4.2066,4.2038,4.2189,4.2228,4.2351,4.2385,4.2417,4.2441,4.2403,4.2555,4.2569,4.2582,4.263,4.2649,4.2426,4.2426,4.2426,4.2425,0,4.1775,4.185,4.1912,4.1988,4.2037,4.212,4.2143,4.2191,4.2191,4.2213,4.2317,4.2363,4.244,4.2469,4.2471,4.2594,4.2577,4.2552,4.2501,4.2605,4.265,4.2668,4.2432,4.2431,4.2429,4.2428,0,0,4.1927,4.2008,4.203,4.2065,4.213,4.2189,4.2272,4.2345,4.2387,4.2442,4.2512,4.2615,4.2592,4.2635,4.2641,4.2698,4.2806,4.2666,4.2668,4.2691,4.2944,4.2962,4.2983,4.2798,4.2802,4.2804,4.2939,0,4.2056,4.2201,4.2212,4.2343,4.2413,4.24,4.2472,4.2521,4.2544,4.2607,4.2633,4.2705,4.267,4.2696,4.2751,4.2781,4.2857,4.2772,4.2864,4.2867,4.2848,4.3007,4.3026,4.3151,4.2957,4.296,4.2962,0,4.2226,4.2286,4.2423,4.2479,4.2509,4.2573,4.2642,4.2702,4.2757,4.277,4.2818,4.2817,4.2902,4.2849,4.2967,4.2909,4.2947,4.2968,4.2973,4.2981,4.292,4.302,4.3191,4.321,4.299,4.2988,4.2986,0,4.2324,4.2438,4.2535,4.2565,4.2633,4.2678,4.2709,4.276,4.2804,4.2864,4.2893,4.2963,4.3001,4.3056,4.3074,4.3033,4.3192,4.3139,4.3205,4.3205,4.3239,4.3236,4.3419,4.3264,4.3264,4.3264,4.3263,0,4.2466,4.2551,4.258,4.264,4.2734,4.2747,4.284,4.2868,4.2914,4.298,4.2974,4.3035,4.3055,4.312,4.3135,4.3231,4.3249,4.3262,4.3264,4.3262,4.326,4.3287,4.3279,4.3269,4.3268,4.3267,4.3266,0,4.2591,4.2614,4.2719,4.2774,4.279,4.2857,4.2904,4.2962,4.2984,4.3067,4.3087,4.3122,4.3199,4.3222,4.3315,4.3324,4.3437,4.3432,4.3418,4.3418,4.3482,4.3476,4.3688,4.3716,4.3544,4.3545,4.3547,0,4.2681,4.2745,4.2807,4.285,4.2882,4.2951,4.2995,4.3011,4.3057,4.3125,4.3175,4.325,4.3311,4.3435,4.3469,4.354,4.3536,4.3606,4.3547,4.3542,4.3537,4.3533,4.3539,4.3617,4.3618,4.362,4.3621,0,4.2837,4.2845,4.2909,4.2977,4.303,4.3084,4.3136,4.3172,4.3195,4.3248,4.3326,4.3373,4.3467,4.3542,4.3614,4.3646,4.3638,4.3639,4.3658,4.3656,4.3645,4.3652,4.3448,4.3634,4.3633,4.3632,4.3631,4.3631,4.2947,4.3004,4.3056,4.3127,4.3168,4.3217,4.3274,4.3303,4.3367,4.3444,4.345,4.3534,4.3588,4.3683,4.3719,4.3786,4.3766,4.3793,4.38,4.3807,4.3812,4.3635,4.3799,4.3799,4.3799,4.3798,4.3798,0,4.3103,4.3136,4.3201,4.3274,4.333,4.3317,4.3374,4.3422,4.3496,4.3546,4.3606,4.3696,4.3769,4.3809,4.3882,4.3927,4.3925,4.3946,4.3943,4.395,4.3826,4.3802,4.3946,4.3946,4.3946,4.3946,4.3946,4.3946,4.3191,4.3286,4.33,4.3416,4.3448,4.353,4.3564,4.3609,4.3649,4.3749,4.3809,4.3834,4.3881,4.3957,4.4024,4.4033,4.4061,4.4084,4.4091,4.3974,4.3959,4.3944,4.3922,4.4089,4.409,4.421,4.4211,4.4212]},{"header":{"parameterUnit":"m.s-1","parameterCategory":1,"la1":30.2991,"la2":30.254,"lo1":-89.0895,"lo2":-89.0444,"dy":0.0017,"dx":0.0017,"nx":28,"ny":28,"refTime":"2025-04-14T03:00:00:Z","depth":0,"parameterNumber":3,"parameterNumberName":"V-component_of_WINDS"},"data":[0,0,0,0,0,0,0,0,0,0,0,0,0,0,0,0,0,0,0,0,0,0,0,0,0,0,0,0,0,0,0,0,0,0,0,0,0,0,0,0,0,0,0,0,0,0,0,0,0,0,0,0,0,0,0,0,0,0,-0.6982,-0.6983,0,-0.7073,-0.7074,-0.7075,-0.7053,-0.7052,-0.705,-0.7048,-0.7149,-0.7153,-0.7157,0,0,0,0,0,0,0,0,0,0,0,0,0,-0.6798,-0.6801,-0.6982,-0.6983,-0.6984,-0.7073,-0.7074,-0.7075,-0.7054,-0.7052,-0.7049,-0.7047,-0.7147,-0.7152,-0.7158,0,0,0,0,0,0,0,0,0,0,0,0,0,-0.6882,-0.6802,-0.6982,-0.6984,-0.6985,-0.7073,-0.7074,-0.7076,-0.7054,-0.7052,-0.7049,-0.7046,-0.7146,-0.7152,-0.7158,-0.7252,0,0,-0.7178,-0.7181,0,0,0,0,0,0,0,0,-0.6878,-0.6889,-0.6982,-0.6984,-0.6985,-0.7049,-0.7046,-0.7135,-0.7055,-0.7028,-0.7048,-0.7045,-0.7118,-0.7127,-0.715,-0.7256,-0.7261,-0.7179,-0.7183,-0.7185,-0.7187,0,0,0,0,0,0,0,-0.6872,-0.6885,-0.7018,-0.6984,-0.6986,-0.6983,-0.6992,-0.7063,-0.7087,-0.703,-0.7029,-0.704,-0.7118,-0.7144,-0.7152,-0.7262,-0.7178,-0.7184,-0.7188,-0.7191,-0.7453,-0.7456,0,0,0,0,0,0,-0.6864,-0.688,-0.7015,-0.7021,-0.6924,-0.6989,-0.6999,-0.7031,-0.7086,-0.7092,-0.7042,-0.7038,-0.7134,-0.7145,-0.7156,-0.7271,-0.7185,-0.7191,-0.7195,-0.745,-0.7454,-0.7457,0,0,0,0,0,0,-0.686,-0.6876,-0.7012,-0.695,-0.6967,-0.6995,-0.7031,-0.7035,-0.706,-0.7095,-0.71,-0.7062,-0.7132,-0.7146,-0.7228,-0.7274,-0.7194,-0.72,-0.7447,-0.7452,-0.7456,-0.7501,0,0,0,0,0,0,-0.6855,-0.6875,-0.6908,-0.6951,-0.6971,-0.708,-0.7034,-0.7038,-0.707,-0.7066,-0.7116,-0.7121,-0.7131,-0.7219,-0.7235,-0.7281,-0.7205,-0.7443,-0.7449,-0.7454,-0.7495,-0.7506,-0.7515,0,0,0,0,0,-0.6848,-0.6918,-0.691,-0.6926,-0.7013,-0.7083,-0.7094,-0.7102,-0.7074,-0.7109,-0.7133,-0.712,-0.7266,-0.7227,-0.7245,-0.7294,-0.744,-0.7447,-0.7454,-0.7491,-0.7504,-0.7515,0,0,0,0,0,0,-0.6882,-0.6924,-0.6915,-0.7,-0.7038,-0.7079,-0.7124,-0.7116,-0.7164,-0.7159,-0.7168,-0.718,-0.7264,-0.7287,-0.7243,-0.7389,-0.7349,-0.736,-0.7371,-0.7384,-0.7394,-0.7388,-0.7211,0,0,0,0,0,-0.6899,-0.6949,-0.6984,-0.7056,-0.7075,-0.7097,-0.7127,-0.713,-0.717,-0.7187,-0.7216,-0.7258,-0.7313,-0.735,-0.7403,-0.7498,-0.7511,-0.7541,-0.7551,-0.756,-0.757,-0.7625,-0.764,-0.748,-0.748,-0.748,0,0,-0.6935,-0.6964,-0.6996,-0.7064,-0.7093,-0.7149,-0.711,-0.717,-0.7212,-0.7197,-0.7275,-0.7299,-0.7346,-0.7436,-0.7477,-0.7458,-0.7616,-0.7568,-0.7575,-0.758,-0.7634,-0.7649,-0.7662,-0.7485,-0.7484,-0.7483,0,0,-0.703,-0.7056,-0.712,-0.715,-0.7194,-0.7208,-0.7224,-0.7266,-0.728,-0.7359,-0.735,-0.7402,-0.7496,-0.7531,-0.7562,-0.7672,-0.7664,-0.7689,-0.7743,-0.7797,-0.781,-0.7821,-0.7863,-0.7878,-0.7698,-0.7699,-0.7699,0,-0.707,-0.715,-0.7154,-0.7215,-0.7247,-0.7234,-0.7301,-0.7331,-0.7391,-0.7415,-0.7392,-0.7512,-0.7543,-0.7643,-0.767,-0.7694,-0.7715,-0.7684,-0.7807,-0.7819,-0.7829,-0.787,-0.7885,-0.7702,-0.7701,-0.7701,-0.7701,0,-0.72,-0.7256,-0.7303,-0.7359,-0.7396,-0.746,-0.7477,-0.7514,-0.7514,-0.7532,-0.7614,-0.7651,-0.7712,-0.7736,-0.7737,-0.7837,-0.7824,-0.7804,-0.7764,-0.7847,-0.7886,-0.7901,-0.7706,-0.7705,-0.7704,-0.7703,0,0,-0.7318,-0.7377,-0.7394,-0.7421,-0.747,-0.7515,-0.758,-0.7638,-0.7671,-0.7714,-0.7771,-0.7852,-0.7835,-0.7869,-0.7874,-0.7921,-0.801,-0.7896,-0.7898,-0.7919,-0.8126,-0.8143,-0.816,-0.8004,-0.8007,-0.801,-0.8123,0,-0.742,-0.753,-0.7537,-0.7639,-0.7693,-0.7682,-0.7739,-0.7777,-0.7795,-0.7846,-0.7867,-0.7926,-0.7897,-0.7918,-0.7964,-0.799,-0.8053,-0.7981,-0.8061,-0.8064,-0.8051,-0.818,-0.8197,-0.8302,-0.8138,-0.8141,-0.8142,0,-0.7552,-0.7597,-0.7704,-0.7747,-0.777,-0.7821,-0.7876,-0.7924,-0.7968,-0.7978,-0.8017,-0.8017,-0.8087,-0.8043,-0.8142,-0.8094,-0.8127,-0.8145,-0.8149,-0.8159,-0.8109,-0.8196,-0.8336,-0.8353,-0.8166,-0.8164,-0.8162,0,-0.7631,-0.7719,-0.7795,-0.7818,-0.787,-0.7906,-0.793,-0.7971,-0.8006,-0.8056,-0.8079,-0.8137,-0.8169,-0.8215,-0.8231,-0.8197,-0.8331,-0.8288,-0.8345,-0.8345,-0.8375,-0.8373,-0.8525,-0.8392,-0.8392,-0.8391,-0.8391,0,-0.7745,-0.7812,-0.7832,-0.7879,-0.7954,-0.7962,-0.8038,-0.806,-0.8097,-0.8151,-0.8145,-0.8197,-0.8213,-0.8269,-0.8282,-0.8364,-0.8378,-0.8391,-0.8394,-0.8393,-0.8392,-0.8416,-0.8411,-0.8396,-0.8395,-0.8394,-0.8393,0,-0.7847,-0.7862,-0.7945,-0.7987,-0.7999,-0.8053,-0.8091,-0.8138,-0.8155,-0.8224,-0.8241,-0.8269,-0.8334,-0.8354,-0.8433,-0.8442,-0.8539,-0.8534,-0.8523,-0.8524,-0.8581,-0.8577,-0.8756,-0.8782,-0.863,-0.8631,-0.8632,0,-0.7919,-0.797,-0.8017,-0.8052,-0.8076,-0.8132,-0.8168,-0.8179,-0.8217,-0.8272,-0.8314,-0.8377,-0.8429,-0.8534,-0.8564,-0.8625,-0.8624,-0.8682,-0.8633,-0.8631,-0.8628,-0.8626,-0.8633,-0.8692,-0.8694,-0.8695,-0.8696,0,-0.8048,-0.8053,-0.8103,-0.8157,-0.82,-0.8243,-0.8285,-0.8315,-0.8332,-0.8376,-0.8441,-0.8481,-0.8561,-0.8626,-0.8688,-0.8716,-0.8712,-0.8711,-0.8728,-0.8729,-0.8721,-0.8729,-0.8551,-0.8708,-0.8707,-0.8706,-0.8705,-0.8705,-0.8139,-0.8185,-0.8225,-0.8283,-0.8315,-0.8355,-0.8402,-0.8425,-0.8478,-0.8543,-0.8547,-0.8618,-0.8665,-0.8747,-0.8779,-0.8837,-0.8821,-0.8845,-0.8851,-0.8858,-0.8864,-0.871,-0.8849,-0.8848,-0.8848,-0.8848,-0.8848,0,-0.8269,-0.8295,-0.8347,-0.8405,-0.8452,-0.8439,-0.8486,-0.8526,-0.8588,-0.863,-0.8681,-0.8758,-0.8821,-0.8856,-0.892,-0.8961,-0.896,-0.8977,-0.8976,-0.8983,-0.8873,-0.8853,-0.8977,-0.8977,-0.8977,-0.8977,-0.8977,-0.8977,-0.8343,-0.842,-0.8431,-0.8526,-0.8552,-0.862,-0.8648,-0.8686,-0.872,-0.8805,-0.8857,-0.8878,-0.8919,-0.8986,-0.9045,-0.9054,-0.9079,-0.9099,-0.9107,-0.9004,-0.8991,-0.8978,-0.896,-0.9104,-0.9104,-0.9212,-0.9213,-0.9214]}]]